Regional Weather Roundup
Issued by NWS Upton, NY

Current Version | Previous Version | Text Only | Print | Product List | Glossary Off
Versions: 1 2 3 4 5 6 7 8 9 10 11 12 13 14 15 16 17 18 19 20 21 22 23 24 25 26 27
000 ASUS41 KOKX 241205 RWROKX REGIONAL WEATHER ROUNDUP NATIONAL WEATHER SERVICE NEW YORK NY 800 AM EDT SUN JUL 24 2016 NOTE: "FAIR" INDICATES FEW OR NO CLOUDS BELOW 12,000 FEET WITH NO SIGNIFICANT WEATHER AND/OR OBSTRUCTIONS TO VISIBILITY. NYZ071-072-176-178-NJZ106-104-241300- NEW YORK CITY METRO AREA CITY SKY/WX TMP DP RH WIND PRES REMARKS Central Park SUNNY 79 61 53 VRB3 30.01S LaGuardia APRT MOSUNNY 80 61 52 NE3 29.98R Kennedy INTL MOSUNNY 81 59 47 N9 29.99R Newark/Liberty MOSUNNY 82 60 47 N3 29.98R BRNX BOT. GARD N/A 79 61 53 E2 30.01R Wall St Helipt SUNNY 79 64 61 CALM 29.99R Teterboro SUNNY 79 60 52 CALM 29.97S $$ NYZ177-179-078>081-241300- LONG ISLAND NEW YORK CITY SKY/WX TMP DP RH WIND PRES REMARKS FARMINGDALE MOSUNNY 79 62 56 NW7 29.98R ISLIP MOSUNNY 77 62 59 N8 29.97R SHIRLEY SUNNY 77 64 64 N5 29.98R RIVERHEAD NOT AVBL WESTHAMPTON SUNNY 76 63 64 NW8 29.99R SOUTHAMPTON N/A 77 66 69 N5 29.93S BRIDGEHAMPTON N/A 70 64 83 CALM 29.96R EAST HAMPTON FAIR 75 63 66 MISG 29.96S MONTAUK POINT N/A 72 64 76 NW7 29.97S $$ NYZ052-065-067-241300- HUDSON VALLEY CITY SKY/WX TMP DP RH WIND PRES REMARKS WHITE PLAINS SUNNY 75 62 64 NW7 29.99R NEWBURGH SUNNY 70 64 83 CALM 30.02R MONTGOMERY MOSUNNY 70 63 78 CALM 30.01R POUGHKEEPSIE SUNNY 73 62 68 CALM 30.00R ALBANY MOSUNNY 68 62 81 N3 30.01R $$ NJZ001-105-106-008-010-013-015-019>022-104-241300- NEW JERSEY CITY SKY/WX TMP DP RH WIND PRES REMARKS NEWARK/LIBERTY MOSUNNY 82 60 47 N3 29.98R TETERBORO SUNNY 79 60 52 CALM 29.97S CALDWELL SUNNY 76 62 62 CALM 30.00R MORRISTOWN SUNNY 75 64 69 CALM 30.00R SOMERVILLE PTSUNNY 72 63 73 CALM 29.99R SUSSEX PTSUNNY 68 62 81 S5 30.02R ANDOVER N/A 68 64 87 CALM 30.03R TRENTON MOSUNNY 76 63 64 N6 30.00R MILLVILLE SUNNY 77 70 79 N5 29.99R ATLANTIC CITY SUNNY 76 68 76 N5 29.98R WRIGHTSTOWN NOT AVBL TOMS RIVER SUNNY 75 66 73 N3 30.00R BELMAR SUNNY 78 62 57 NE3 30.00R $$ PAZ047>061-062-071-241300- EASTERN PENNSYLVANIA CITY SKY/WX TMP DP RH WIND PRES REMARKS PHILADELPHIA MOSUNNY 80 64 58 N5 30.00R ALLENTOWN MOSUNNY 72 62 71 CALM 30.02R SCRANTON MOSUNNY 70 59 68 SW5 30.05R $$ CTZ002-004>006-009-010-012-RIZ004-006-007-MAZ004-011-015-241300- SOUTHERN NEW ENGLAND IN CT CITY SKY/WX TMP DP RH WIND PRES REMARKS BRADLEY INTL MOSUNNY 74 60 61 CALM 29.98R HARTFORD SUNNY 74 64 71 E3 29.98R DANBURY SUNNY 76 61 59 N7 30.01R WTRBRY/OXFORD MOSUNNY 72 59 64 N9 30.01R BRIDGEPORT SUNNY 77 62 59 N12 29.97R MERIDEN SUNNY 75 61 61 VRB5 29.99R NEW HAVEN SUNNY 75 61 61 N8 29.98R CHESTER FAIR 73 63 68 N5 29.99R GROTON SUNNY 76 61 59 N12 29.96R WILLIMANTIC NOT AVBL IN RI CITY SKY/WX TMP DP RH WIND PRES REMARKS PROVIDENCE SUNNY 74 60 61 NW10 29.95R BLOCK ISLAND SUNNY 72 63 73 NW7 29.96R WESTERLY SUNNY 75 59 57 N9 29.96R IN MA CITY SKY/WX TMP DP RH WIND PRES REMARKS BOSTON MOSUNNY 74 60 61 NW8 29.93R WORCESTER SUNNY 70 58 65 N10 29.98S WESTFIELD SUNNY 74 60 61 CALM 29.99R PROVINCETOWN SUNNY 70 65 84 NW8 29.92R NANTUCKET SUNNY 73 62 68 NW12 29.92R $$ ANZ330-335-338-340-345-350-353-355-241300- COASTAL MARINE OBSERVATIONS STATION/POSITION TIME SKY/WX TEMP WIND PRES VSBY WAVE AIR SEA DIR/SP/G HT/PER (UTC) (F) (DEG/KT/KT) (MB) (MI) (FT/S) NY HARB ENTRANCE 1050 75 72 360/ 4/ 4 1014.6 2/ 6 20S FIRE ISLAND 1050 74 74 350/ 6/ 6 1014.0 2/ 6 GREAT SOUTH BAY 1100 74 80 330/ 6/ 8 N/A 23 SSW MONTAUK P 1050 72 71 300/ 6/ 6 1014.5 3/ 6 15 E BARNEGAT LI 1122 76 N/A 2/ 6 HUDSON CANYON 1050 78 77 1013.4 3/ 6 KINGS POINT 1100 75 71 1014.9 EXECUTION ROCKS 1100 78 310/ 4/ 4 N/A CENTRAL LI SOUND 1100 73 73 320/ 6/ 6 N/A 1 EASTERN LI SOUND 1100 74 67 290/ 8/ 8 N/A ROBBINS REEF 1100 78 320/ 1/ 2 1014.4 $$ >>>>>>>>>>>>>>>>>>>>>>>>>>>> KEY <<<<<<<<<<<<<<<<<<<<<<<<<<< > < > SKY/WX - SKY CONDITION/PRESENT WEATHER < > TMP - TEMPERATURE IN FAHRENHEIT < > DP - DEWPOINT IN FAHRENHEIT < > RH - RELATIVE HUMIDITY IN PERCENT < > WIND - DIRECTION AND SPEED IN MPH < > PRES - MEAN SEA LEVEL PRESSURE IN INCHES OF HG < > WCI - WIND CHILL INDEX < > VSB - VISIBILITY IN MILES < > HX - HEAT INDEX < > TC - TEMPERATURE IN CELSIUS < > VRB - VARIABLE WIND DIRECTION < > < >>>>>>>>>>>>>>>>>>>>>>>>>>>> KEY <<<<<<<<<<<<<<<<<<<<<<<<<<<

USA.gov is the U.S. government's official web portal to all federal, state and local government web resources and services.